Weather History for Los Angeles, CA

Change the Weather History Date:

Monday, October 31, 2005

  Actual Average Record
Temperature  
Mean Temperature 72 °F 64 °F  
Max Temperature 87 °F 72 °F 91 °F (1949)
Min Temperature 57 °F 57 °F 44 °F (1971)
Degree Days  
Heating Degree Days 0 2  
Month to date heating degree days 47 36  
Since 1 July heating degree days 51 44  
Cooling Degree Days 7 1  
Month to date cooling degree days 60 63  
Year to date cooling degree days 468 531  
Growing Degree Days 22 (Base 50)    
Moisture  
Dew Point 51 °F    
Average Humidity 55    
Maximum Humidity 84    
Minimum Humidity 25    
Precipitation  
Precipitation 0.00 in 0.03 in 1.13 in (1987)
Month to date precipitation 1.02 0.56  
Year to date precipitation 17.40 9.66  
Since 1 July precipitation 1.27 0.85  
Sea Level Pressure  
Sea Level Pressure 30.16 in    
Wind  
Wind Speed 5 mph (WNW)    
Max Wind Speed 12 mph    
Max Gust Speed 14 mph    
Visibility 10 miles    
Events      
T = Trace of Precipitation, MM = Missing Value Source: NWS Daily Summary

Daily Weather History Graph

Daily Weather History Graph

Search for Another Location

Airport:

Trip Planner

Search our weather history database for the weather conditions in past years. The results will help you decide how hot, cold, wet, or windy it might be!

Date:

Astronomy

Oct. 31, 2005 Rise Set
Actual Time 6:12 AM PST 5:01 PM PST
Civil Twilight 5:46 AM PST 5:27 PM PST
Nautical Twilight 5:16 AM PST 5:56 PM PST
Astronomical Twilight 4:47 AM PST 6:25 PM PST
Moon 4:49 AM PST (10/31) 4:16 PM PST (10/31)
Length of Visible Light 11h 40m
Length of Day
10h 49m
Waning Crescent, 2% of the Moon is Illuminated
Oct 31
Waning Crescent
Nov 1
New
Nov 8
First Quarter
Nov 15
Full
Nov 23
Last Quarter

Hourly Weather History & Observations

Time (PST) Temp. Heat Index Dew Point Humidity Pressure Visibility Wind Dir Wind Speed Gust Speed Precip Events Conditions
12:50 AM 62.1 °F - 55.0 °F 78% 30.19 in 10.0 mi Variable 4.6 mph - N/A   Clear
1:50 AM 59.0 °F - 54.0 °F 83% 30.19 in 10.0 mi ENE 4.6 mph - N/A   Clear
2:50 AM 60.1 °F - 52.0 °F 75% 30.17 in 10.0 mi NE 4.6 mph - N/A   Clear
3:50 AM 57.9 °F - 48.9 °F 72% 30.17 in 10.0 mi East 4.6 mph - N/A   Clear
4:50 AM 60.1 °F - 45.0 °F 57% 30.18 in 10.0 mi East 4.6 mph - N/A   Clear
5:50 AM 60.1 °F - 44.1 °F 55% 30.19 in 10.0 mi ESE 3.5 mph - N/A   Clear
6:50 AM 62.1 °F - 44.1 °F 52% 30.21 in 10.0 mi Calm Calm - N/A   Clear
7:50 AM 68.0 °F - 45.0 °F 43% 30.23 in 10.0 mi Calm Calm - N/A   Clear
8:50 AM 75.9 °F - 46.0 °F 35% 30.24 in 10.0 mi North 3.5 mph - N/A   Clear
9:50 AM 81.0 °F - 46.9 °F 30% 30.24 in 10.0 mi NNW 3.5 mph - N/A   Clear
10:50 AM 84.0 °F - 44.1 °F 25% 30.23 in 10.0 mi Variable 5.8 mph - N/A   Clear
11:50 AM 86.0 °F - 46.0 °F 25% 30.20 in 10.0 mi WSW 5.8 mph - N/A   Clear
12:50 PM 86.0 °F - 46.9 °F 26% 30.17 in 10.0 mi WSW 8.1 mph - N/A   Clear
1:50 PM 82.9 °F 81.9 °F 54.0 °F 37% 30.16 in 10.0 mi West 10.4 mph - N/A   Clear
2:50 PM 79.0 °F - 55.0 °F 44% 30.14 in 10.0 mi West 6.9 mph - N/A   Clear
3:50 PM 80.1 °F 80.0 °F 54.0 °F 40% 30.13 in 10.0 mi West 5.8 mph - N/A   Clear
4:50 PM 78.1 °F - 52.0 °F 40% 30.12 in 10.0 mi West 8.1 mph - N/A   Clear
5:50 PM 71.1 °F - 60.1 °F 68% 30.12 in 10.0 mi WSW 8.1 mph - N/A   Clear
6:50 PM 71.1 °F - 64.0 °F 78% 30.12 in 10.0 mi SW 4.6 mph - N/A   Clear
7:50 PM 70.0 °F - 64.0 °F 81% 30.11 in 9.0 mi SW 3.5 mph - N/A   Clear
8:50 PM 72.0 °F - 55.9 °F 57% 30.11 in 10.0 mi Variable 3.5 mph - N/A   Clear
9:50 PM 72.0 °F - 55.0 °F 55% 30.11 in 10.0 mi Calm Calm - N/A   Clear
10:50 PM 70.0 °F - 46.9 °F 44% 30.10 in 10.0 mi East 5.8 mph - N/A   Clear
11:50 PM 71.1 °F - 46.0 °F 41% 30.08 in 10.0 mi NE 4.6 mph - N/A   Clear